When you browse on this site, cookies collect data to enhance your experience and personalize the content and advertising you see.
Visit our Privacy Policy to learn more. By continuing to use the site, you agree to this use of cookies and data.
  • In Hungary
  • List of Countries
  • For 7 days
  • Water Temperature
  • Satellite Maps
  • Weather Map
  • News
  • Weather Widgets
  • user-avatar
    Login

    Hourly Weather Kashipur

    Today, 26 March, Tuesday

    Time Temperature Precipitation Wind Pressure Humidity
    00:00 +20°C° 0.1 mm 2 mps 740 mmHg 64%
    01:00 +20°C° 0.1 mm 2 mps 740 mmHg 64%
    02:00 +20°C° 0.1 mm 2 mps 740 mmHg 64%
    03:00 +19°C° 0 mm 2 mps 740 mmHg 64%
    04:00 +19°C° 0 mm 2 mps 740 mmHg 65%
    05:00 +18°C° 0 mm 2 mps 739 mmHg 68%
    06:00 +20°C° 0 mm 2 mps 739 mmHg 62%
    07:00 +21°C° 0 mm 2 mps 740 mmHg 56%
    08:00 +24°C° 0 mm 2 mps 740 mmHg 50%
    09:00 +26°C° 0 mm 2 mps 740 mmHg 44%
    10:00 +28°C° 0 mm 2 mps 740 mmHg 38%
    11:00 +30°C° 0 mm 3 mps 740 mmHg 32%
    12:00 +31°C° 0 mm 3 mps 740 mmHg 30%
    13:00 +33°C° 0 mm 3 mps 740 mmHg 28%
    14:00 +33°C° 0 mm 3 mps 739 mmHg 27%
    15:00 +33°C° 0 mm 3 mps 739 mmHg 28%
    16:00 +31°C° 0 mm 3 mps 739 mmHg 30%
    17:00 +30°C° 0 mm 2 mps 739 mmHg 32%
    18:00 +28°C° 0 mm 2 mps 740 mmHg 35%
    19:00 +26°C° 0 mm 2 mps 740 mmHg 38%
    20:00 +24°C° 0 mm 2 mps 741 mmHg 41%
    21:00 +24°C° 0 mm 1 mps 741 mmHg 42%
    22:00 +23°C° 0 mm 1 mps 741 mmHg 44%
    23:00 +22°C° 0 mm 1 mps 741 mmHg 46%

    Tomorrow, 27 March, Wednesday

    Time Temperature Precipitation Wind Pressure Humidity
    00:00 +22°C° 0 mm 1 mps 741 mmHg 48%
    01:00 +21°C° 0 mm 1 mps 741 mmHg 50%
    02:00 +21°C° 0 mm 1 mps 741 mmHg 53%
    03:00 +20°C° 0 mm 1 mps 741 mmHg 54%
    04:00 +20°C° 0 mm 1 mps 740 mmHg 56%
    05:00 +20°C° 0 mm 1 mps 740 mmHg 57%
    06:00 +21°C° 0 mm 1 mps 741 mmHg 53%
    07:00 +23°C° 0 mm 1 mps 741 mmHg 48%
    08:00 +25°C° 0 mm 1 mps 741 mmHg 43%
    09:00 +27°C° 0 mm 1 mps 741 mmHg 38%
    10:00 +29°C° 0 mm 2 mps 741 mmHg 34%
    11:00 +32°C° 0 mm 2 mps 741 mmHg 29%
    12:00 +34°C° 0 mm 2 mps 740 mmHg 27%
    13:00 +35°C° 0 mm 3 mps 740 mmHg 24%
    14:00 +36°C° 0 mm 3 mps 739 mmHg 22%
    15:00 +35°C° 0 mm 3 mps 739 mmHg 24%
    16:00 +34°C° 0 mm 3 mps 739 mmHg 26%
    17:00 +32°C° 0 mm 2 mps 738 mmHg 28%
    18:00 +30°C° 0 mm 2 mps 739 mmHg 31%
    19:00 +28°C° 0 mm 2 mps 740 mmHg 34%
    20:00 +26°C° 0 mm 2 mps 740 mmHg 37%
    21:00 +25°C° 0 mm 1 mps 740 mmHg 39%
    22:00 +25°C° 0 mm 1 mps 740 mmHg 41%
    23:00 +24°C° 0 mm 1 mps 740 mmHg 43%

    Day after tomorrow, 28 March, Thursday

    Time Temperature Precipitation Wind Pressure Humidity
    00:00 +23°C° 0 mm 1 mps 740 mmHg 44%
    01:00 +23°C° 0 mm 1 mps 740 mmHg 45%
    02:00 +23°C° 0 mm 1 mps 739 mmHg 46%
    03:00 +22°C° 0 mm 1 mps 739 mmHg 47%
    04:00 +22°C° 0 mm 1 mps 739 mmHg 47%
    05:00 +22°C° 0 mm 1 mps 739 mmHg 47%
    06:00 +24°C° 0 mm 1 mps 739 mmHg 44%
    07:00 +26°C° 0 mm 1 mps 740 mmHg 40%
    08:00 +28°C° 0 mm 1 mps 740 mmHg 37%
    09:00 +30°C° 0 mm 1 mps 740 mmHg 33%
    10:00 +32°C° 0 mm 2 mps 740 mmHg 29%
    11:00 +35°C° 0 mm 2 mps 740 mmHg 26%
    12:00 +36°C° 0 mm 2 mps 739 mmHg 23%
    13:00 +37°C° 0 mm 2 mps 739 mmHg 21%
    14:00 +38°C° 0 mm 2 mps 738 mmHg 19%
    15:00 +37°C° 0 mm 2 mps 738 mmHg 21%
    16:00 +36°C° 0 mm 2 mps 737 mmHg 23%
    17:00 +36°C° 0 mm 2 mps 737 mmHg 25%
    18:00 +32°C° 0 mm 2 mps 737 mmHg 27%
    19:00 +30°C° 0 mm 2 mps 738 mmHg 30%
    20:00 +28°C° 0 mm 1 mps 738 mmHg 32%
    21:00 +27°C° 0 mm 1 mps 738 mmHg 34%
    22:00 +26°C° 0 mm 1 mps 738 mmHg 36%
    23:00 +26°C° 0 mm 1 mps 738 mmHg 37%

    29 March, Friday

    Time Temperature Precipitation Wind Pressure Humidity
    00:00 +25°C° 0 mm 1 mps 738 mmHg 39%
    01:00 +25°C° 0 mm 1 mps 737 mmHg 40%
    02:00 +24°C° 0 mm 1 mps 737 mmHg 42%
    03:00 +24°C° 0 mm 1 mps 737 mmHg 42%
    04:00 +23°C° 0 mm 1 mps 737 mmHg 43%
    05:00 +23°C° 0 mm 1 mps 737 mmHg 43%
    06:00 +25°C° 0 mm 1 mps 737 mmHg 40%
    07:00 +27°C° 0 mm 1 mps 738 mmHg 36%
    08:00 +29°C° 0 mm 1 mps 739 mmHg 33%
    09:00 +31°C° 0 mm 2 mps 739 mmHg 30%
    10:00 +34°C° 0 mm 2 mps 738 mmHg 27%
    11:00 +36°C° 0 mm 2 mps 738 mmHg 23%
    12:00 +38°C° 0 mm 3 mps 738 mmHg 20%
    13:00 +39°C° 0 mm 3 mps 737 mmHg 18%
    14:00 +40°C° 0 mm 3 mps 736 mmHg 15%
    15:00 +39°C° 0 mm 3 mps 736 mmHg 16%
    16:00 +38°C° 0 mm 3 mps 735 mmHg 17%
    17:00 +37°C° 0 mm 3 mps 735 mmHg 18%
    18:00 +35°C° 0 mm 2 mps 736 mmHg 20%
    19:00 +32°C° 0 mm 2 mps 736 mmHg 22%
    20:00 +30°C° 0 mm 2 mps 737 mmHg 23%
    21:00 +29°C° 0 mm 2 mps 737 mmHg 25%
    22:00 +29°C° 0 mm 2 mps 737 mmHg 26%
    23:00 +28°C° 0 mm 2 mps 737 mmHg 28%

    30 March, Saturday

    Time Temperature Precipitation Wind Pressure Humidity
    00:00 +27°C° 0 mm 1 mps 737 mmHg 28%
    01:00 +27°C° 0 mm 1 mps 736 mmHg 28%
    02:00 +26°C° 0 mm 1 mps 736 mmHg 29%
    03:00 +26°C° 0 mm 2 mps 736 mmHg 28%
    04:00 +26°C° 0 mm 2 mps 736 mmHg 27%
    05:00 +25°C° 0 mm 2 mps 736 mmHg 26%
    06:00 +27°C° 0 mm 2 mps 737 mmHg 25%
    07:00 +29°C° 0 mm 1 mps 737 mmHg 23%
    08:00 +31°C° 0 mm 1 mps 738 mmHg 22%
    09:00 +33°C° 0 mm 1 mps 738 mmHg 20%
    10:00 +35°C° 0 mm 1 mps 737 mmHg 18%
    11:00 +38°C° 0 mm 2 mps 737 mmHg 16%
    12:00 +40°C° 0 mm 2 mps 737 mmHg 14%
    13:00 +42°C° 0 mm 3 mps 736 mmHg 12%
    14:00 +43°C° 0 mm 4 mps 735 mmHg 10%
    15:00 +42°C° 0 mm 4 mps 735 mmHg 11%
    16:00 +40°C° 0 mm 3 mps 735 mmHg 13%
    17:00 +39°C° 0 mm 3 mps 734 mmHg 14%
    18:00 +37°C° 0.1 mm 3 mps 735 mmHg 16%
    19:00 +34°C° 0.1 mm 3 mps 735 mmHg 18%
    20:00 +31°C° 0.1 mm 3 mps 736 mmHg 21%
    21:00 +30°C° 0 mm 3 mps 736 mmHg 21%
    22:00 +30°C° 0 mm 2 mps 736 mmHg 21%
    23:00 +29°C° 0 mm 2 mps 736 mmHg 21%

    31 March, Sunday

    Time Temperature Precipitation Wind Pressure Humidity
    00:00 +29°C° 0 mm 2 mps 736 mmHg 20%
    01:00 +28°C° 0 mm 2 mps 736 mmHg 19%
    02:00 +28°C° 0 mm 2 mps 735 mmHg 19%
    03:00 +27°C° 0 mm 2 mps 736 mmHg 20%
    04:00 +26°C° 0 mm 2 mps 736 mmHg 21%
    05:00 +25°C° 0 mm 2 mps 736 mmHg 23%
    06:00 +27°C° 0.1 mm 2 mps 736 mmHg 23%
    07:00 +28°C° 0.1 mm 2 mps 737 mmHg 24%
    08:00 +30°C° 0.1 mm 2 mps 737 mmHg 24%
    09:00 +31°C° 0 mm 2 mps 737 mmHg 22%
    10:00 +34°C° 0 mm 2 mps 737 mmHg 21%
    11:00 +35°C° 0 mm 3 mps 737 mmHg 19%
    12:00 +37°C° 0 mm 2 mps 737 mmHg 18%
    13:00 +38°C° 0 mm 2 mps 736 mmHg 17%
    14:00 +39°C° 0 mm 1 mps 736 mmHg 16%
    15:00 +37°C° 0 mm 1 mps 735 mmHg 17%
    16:00 +37°C° 0 mm 1 mps 735 mmHg 18%
    17:00 +36°C° 0 mm 1 mps 735 mmHg 19%
    18:00 +34°C° 0 mm 1 mps 736 mmHg 21%
    19:00 +31°C° 0 mm 1 mps 736 mmHg 22%
    20:00 +29°C° 0 mm 1 mps 737 mmHg 24%
    21:00 +28°C° 0 mm 1 mps 737 mmHg 25%
    22:00 +28°C° 0 mm 1 mps 737 mmHg 26%
    23:00 +28°C° 0 mm 1 mps 737 mmHg 26%
    Show more